TimePDT,TemperatureF,Dew PointF,Humidity,Sea Level PressureIn,VisibilityMPH,Wind Direction,Wind SpeedMPH,Gust SpeedMPH,PrecipitationIn,Events,Conditions,WindDirDegrees,DateUTC
12:53 AM,68.0,33.1,27,30.06,10.0,NW,5.8,-,N/A,,Clear,310,2013-03-13 07:53:00
1:53 AM,66.0,33.1,29,30.06,10.0,NNW,10.4,-,N/A,,Clear,330,2013-03-13 08:53:00
2:53 AM,66.9,32.0,27,30.05,10.0,NW,8.1,-,N/A,,Clear,320,2013-03-13 09:53:00
3:53 AM,63.0,33.1,33,30.04,10.0,NNW,8.1,-,N/A,,Clear,340,2013-03-13 10:53:00
4:53 AM,61.0,32.0,34,30.04,10.0,North,6.9,-,N/A,,Clear,360,2013-03-13 11:53:00
5:53 AM,61.0,32.0,34,30.06,10.0,NNW,6.9,-,N/A,,Clear,340,2013-03-13 12:53:00
6:53 AM,61.0,30.0,31,30.08,10.0,North,6.9,-,N/A,,Clear,350,2013-03-13 13:53:00
7:53 AM,64.0,30.0,28,30.10,10.0,NNW,8.1,-,N/A,,Clear,330,2013-03-13 14:53:00
8:53 AM,72.0,28.0,20,30.10,10.0,NW,3.5,-,N/A,,Clear,310,2013-03-13 15:53:00
9:53 AM,82.0,30.9,16,30.10,10.0,Calm,Calm,-,N/A,,Clear,0,2013-03-13 16:53:00
10:53 AM,89.1,27.0,11,30.10,10.0,Calm,Calm,-,N/A,,Clear,0,2013-03-13 17:53:00
12:53 PM,91.0,23.0,8,30.05,10.0,West,6.9,-,N/A,,Clear,270,2013-03-13 19:53:00
1:53 PM,91.9,21.9,8,30.02,10.0,SSW,5.8,-,N/A,,Clear,200,2013-03-13 20:53:00
2:53 PM,93.9,21.9,7,30.00,10.0,East,5.8,-,N/A,,Clear,100,2013-03-13 21:53:00
3:53 PM,93.9,19.9,7,29.98,10.0,WSW,6.9,-,N/A,,Clear,250,2013-03-13 22:53:00
4:53 PM,93.9,19.9,7,29.96,10.0,Calm,Calm,-,N/A,,Clear,0,2013-03-13 23:53:00
5:53 PM,93.0,21.0,7,29.96,10.0,SE,8.1,-,N/A,,Clear,130,2013-03-14 00:53:00
6:53 PM,88.0,28.9,12,29.97,10.0,SE,5.8,-,N/A,,Clear,130,2013-03-14 01:53:00
7:53 PM,82.0,33.1,17,30.00,10.0,East,5.8,-,N/A,,Clear,100,2013-03-14 02:53:00
8:53 PM,81.0,33.1,18,30.02,10.0,Calm,Calm,-,N/A,,Clear,0,2013-03-14 03:53:00
9:53 PM,75.0,35.1,23,30.04,10.0,Calm,Calm,-,N/A,,Clear,0,2013-03-14 04:53:00
10:53 PM,73.9,30.9,21,30.04,10.0,NNW,8.1,18.4,N/A,,Clear,340,2013-03-14 05:53:00
11:53 PM,72.0,32.0,23,30.03,10.0,NNW,6.9,-,N/A,,Clear,330,2013-03-14 06:53:00